DLH1522 EDDH-EDDS

Flight info

Callsign DLH1522
Flight time N/A
Altitude 34000
Route AMLUH2G AMLUH M852 DENIX Z113 SAS P605 TOSTU T726 LBU
Aircraft A388/J-SADE2E3FGHIJ3J4J5M1RWXY/LB1D1

Departure

Time 2026-04-24 08:09
Airport Hamburg Helmut Schmidt Airport (EDDH)

Arrival

Time N/A
Airport Stuttgart Airport (EDDS)
Time Latitude Longitude Altitude Speed Heading
2026-04-24 07:55 53.63017 10.00331 56 ft 0 kts 122°
2026-04-24 08:01 53.63018 10.00331 56 ft 1 kts 122°
2026-04-24 08:02 53.63020 10.00324 56 ft 1 kts 123°
2026-04-24 08:02 53.63026 10.00311 48 ft 1 kts 125°
2026-04-24 08:02 53.63031 10.00299 48 ft 1 kts 126°
2026-04-24 08:02 53.63035 10.00289 48 ft 0 kts 126°
2026-04-24 08:03 53.63040 10.00278 50 ft 2 kts 126°
2026-04-24 08:03 53.63046 10.00264 48 ft 2 kts 126°
2026-04-24 08:03 53.63054 10.00251 48 ft 2 kts 139°
2026-04-24 08:04 53.63067 10.00240 48 ft 2 kts 157°
2026-04-24 08:04 53.63082 10.00232 48 ft 2 kts 166°
2026-04-24 08:04 53.63097 10.00228 48 ft 2 kts 172°
2026-04-24 08:04 53.63113 10.00226 48 ft 2 kts 175°
2026-04-24 08:05 53.63114 10.00226 48 ft 0 kts 175°
2026-04-24 08:06 53.63086 10.00228 48 ft 0 kts 184°
2026-04-24 08:07 53.63060 10.00214 48 ft 12 kts 205°
2026-04-24 08:07 53.62983 10.00132 48 ft 14 kts 214°
2026-04-24 08:07 53.62893 10.00049 50 ft 15 kts 199°
2026-04-24 08:07 53.62829 9.99927 49 ft 14 kts 249°
2026-04-24 08:08 53.62817 9.99794 50 ft 10 kts 290°
2026-04-24 08:08 53.62848 9.99748 48 ft 6 kts 350°
2026-04-24 08:08 53.62874 9.99734 48 ft 0 kts 335°
2026-04-24 08:09 53.62901 9.99710 49 ft 29 kts 333°
2026-04-24 08:09 53.63353 9.99324 49 ft 111 kts 332°
2026-04-24 08:09 53.64178 9.98613 208 ft 146 kts 330°
2026-04-24 08:09 53.65091 9.97830 762 ft 147 kts 329°
2026-04-24 08:10 53.65987 9.97060 1499 ft 142 kts 331°
2026-04-24 08:10 53.66892 9.96288 2044 ft 152 kts 332°
2026-04-24 08:10 53.67819 9.95494 2378 ft 170 kts 333°
2026-04-24 08:10 53.68581 9.94948 2640 ft 188 kts 343°
2026-04-24 08:11 53.69949 9.94634 3258 ft 205 kts
2026-04-24 08:11 53.71378 9.94706 4298 ft 204 kts 360°
2026-04-24 08:11 53.72770 9.94966 5315 ft 207 kts 15°
2026-04-24 08:11 53.74024 9.96173 6362 ft 211 kts 39°
2026-04-24 08:12 53.74848 9.98290 7318 ft 224 kts 66°
2026-04-24 08:12 53.74962 10.00998 8210 ft 242 kts 97°